New Orleans Lakefront, LA

2:07 AM CDT on March 24, 2017 (GMT -0500)
Lakefront

Weather History for KNEW - January, 2013

Change the Weather History Date:

Sunday, January 6, 2013

  Actual Average Record
Temperature  
Mean Temperature 49 °F 53 °F  
Max Temperature 52 °F 62 °F 79 °F (1989)
Min Temperature 46 °F 45 °F 23 °F (1969)
Degree Days  
Heating Degree Days 16 12  
Month to date heating degree days 83 72  
Since 1 July heating degree days 491 553  
Cooling Degree Days 0 1  
Month to date cooling degree days 1 6  
Year to date cooling degree days 1 6  
Growing Degree Days 2 (Base 50)    
Moisture  
Dew Point 44 °F    
Average Humidity 78    
Maximum Humidity 93    
Minimum Humidity 63    
Precipitation  
Precipitation 0.68 in 0.16 in 3.98 in (1964)
Month to date precipitation 1.21 0.98  
Year to date precipitation 1.21 0.98  
Snow  
Snow 0.00 in - - ()
Month to date snowfall 0.0  
Since 1 July snowfall 0.0  
Snow Depth 0.00 in    
Sea Level Pressure  
Sea Level Pressure 30.23 in    
Wind  
Wind Speed 11 mph (NNE)    
Max Wind Speed 22 mph    
Max Gust Speed 26 mph    
Visibility 8 miles    
Events Rain    
T = Trace of Precipitation, MM = Missing Value Source: NWS Daily Summary

Daily Weather History Graph

Daily Weather History Graph

Search for Another Location

Airport or City:

Trip Planner

Search our weather history database for the weather conditions in past years. The results will help you decide how hot, cold, wet, or windy it might be!

Date:

Astronomy

Jan. 06, 2013 Rise Set
Actual Time 6:57 AM CST 5:15 PM CST
Civil Twilight 6:30 AM CST 5:41 PM CST
Nautical Twilight 6:01 AM CST 6:11 PM CST
Astronomical Twilight 5:32 AM CST 6:40 PM CST
Moon 1:21 AM CST (1/6) 12:35 PM CST (1/6)
Length of Visible Light 11h 10m
Length of Day
10h 18m
Waning Crescent, 33% of the Moon is Illuminated
Jan 6
Waning Crescent
Jan 11
New
Jan 18
First Quarter
Jan 26
Full
Feb 3
Last Quarter

Hourly Weather History & Observations

Time (CST) Temp. Dew Point Humidity Pressure Visibility Wind Dir Wind Speed Gust Speed Precip Events Conditions
12:53 AM 55.0 °F 39.0 °F 55% 30.20 in 10.0 mi East 11.5 mph - N/A   Overcast
1:53 AM 54.0 °F 39.9 °F 59% 30.18 in 10.0 mi East 12.7 mph - N/A   Overcast
2:27 AM 53.6 °F 39.2 °F 58% 30.19 in 10.0 mi East 12.7 mph - N/A   Overcast
2:53 AM 54.0 °F 39.9 °F 59% 30.17 in 10.0 mi East 11.5 mph - N/A   Overcast
3:53 AM 55.0 °F 41.0 °F 59% 30.16 in 10.0 mi ENE 10.4 mph - N/A   Overcast
4:53 AM 54.0 °F 42.1 °F 64% 30.15 in 10.0 mi NE 10.4 mph - N/A   Overcast
5:22 AM 53.6 °F 42.8 °F 67% 30.19 in 10.0 mi NNE 12.7 mph - N/A   Overcast
5:53 AM 54.0 °F 43.0 °F 66% 30.17 in 10.0 mi North 15.0 mph - N/A   Overcast
6:53 AM 51.1 °F 45.0 °F 80% 30.21 in 4.0 mi NNE 17.3 mph - N/A   Haze
6:58 AM 51.8 °F 44.6 °F 76% 30.24 in 2.5 mi North 17.3 mph - N/A   Haze
7:30 AM 50.0 °F 44.6 °F 82% 30.25 in 3.0 mi North 17.3 mph - 0.03 in   Haze
7:53 AM 50.0 °F 45.0 °F 83% 30.24 in 2.0 mi NNE 15.0 mph - 0.11 in Rain Heavy Rain
8:16 AM 50.0 °F 44.6 °F 82% 30.26 in 1.5 mi NNE 17.3 mph - 0.12 in Rain Rain
8:26 AM 50.0 °F 44.6 °F 82% 30.27 in 3.0 mi North 18.4 mph - 0.15 in Rain Light Rain
8:53 AM 50.0 °F 44.1 °F 80% 30.24 in 5.0 mi NNE 19.6 mph - 0.15 in Rain Light Rain
9:25 AM 50.0 °F 44.6 °F 82% 30.27 in 2.5 mi NNE 20.7 mph - 0.06 in Rain Light Rain
9:53 AM 50.0 °F 45.0 °F 83% 30.25 in 3.0 mi NNE 18.4 mph - 0.13 in Rain Rain
10:40 AM 51.8 °F 44.6 °F 76% 30.27 in 7.0 mi NNE 17.3 mph - 0.13 in Rain Light Rain
10:53 AM 51.1 °F 45.0 °F 80% 30.24 in 10.0 mi NE 18.4 mph - 0.15 in Rain Light Rain
11:01 AM 51.8 °F 44.6 °F 76% 30.26 in 10.0 mi NNE 17.3 mph - 0.00 in Rain Light Rain
11:53 AM 52.0 °F 46.0 °F 80% 30.22 in 10.0 mi NNE 18.4 mph - 0.00 in   Overcast
12:53 PM 52.0 °F 46.0 °F 80% 30.21 in 4.0 mi North 16.1 mph - 0.00 in Rain Light Rain
1:51 PM 51.8 °F 46.4 °F 82% 30.22 in 10.0 mi NE 13.8 mph - 0.01 in   Overcast
1:53 PM 52.0 °F 46.0 °F 80% 30.20 in 10.0 mi NNE 13.8 mph - 0.01 in   Overcast
2:53 PM 53.1 °F 46.0 °F 77% 30.20 in 10.0 mi NNE 15.0 mph - N/A   Overcast
3:31 PM 53.6 °F 46.4 °F 77% 30.23 in 10.0 mi North 11.5 mph - N/A   Overcast
3:53 PM 53.1 °F 46.9 °F 80% 30.22 in 10.0 mi NNE 12.7 mph - N/A   Overcast
4:21 PM 53.6 °F 46.4 °F 77% 30.23 in 10.0 mi NNE 12.7 mph - N/A   Overcast
4:53 PM 53.1 °F 46.0 °F 77% 30.22 in 10.0 mi NNE 11.5 mph - N/A   Overcast
5:39 PM 53.6 °F 46.4 °F 77% 30.24 in 10.0 mi North 12.7 mph - N/A   Overcast
5:53 PM 53.1 °F 46.0 °F 77% 30.23 in 10.0 mi North 12.7 mph - N/A   Overcast
6:02 PM 53.6 °F 44.6 °F 72% 30.25 in 10.0 mi North 12.7 mph - N/A   Overcast
6:53 PM 53.1 °F 45.0 °F 74% 30.25 in 10.0 mi North 13.8 mph - N/A   Overcast
7:03 PM 53.6 °F 44.6 °F 72% 30.27 in 10.0 mi North 13.8 mph - N/A   Overcast
7:53 PM 53.1 °F 45.0 °F 74% 30.26 in 10.0 mi NNE 10.4 mph - N/A   Overcast
8:53 PM 53.6 °F 44.6 °F 72% 30.28 in 10.0 mi NNE 11.5 mph - N/A   Overcast
9:53 PM 53.1 °F 45.0 °F 74% 30.28 in 10.0 mi NNE 11.5 mph - N/A   Partly Cloudy
10:53 PM 53.1 °F 44.1 °F 71% 30.28 in 10.0 mi NNE 12.7 mph - N/A   Clear
11:53 PM 52.0 °F 44.1 °F 74% 30.28 in 10.0 mi NNE 13.8 mph - N/A   Clear